Precipitable_Water
0.46 0.46 0.46 0.44 0.44 0.42 0.42 0.42 0.42 0.40 0.40 0.40 0.40 0.40 0.40 0.40 0.40 0.40 0.42 0.42 0.42 0.42 0.42 0.42 0.42 0.42 0.44 0.44 0.44 0.44 0.44 0.46 0.44 0.46 0.46 0.44 0.44 0.44 0.42 0.42 0.42 0.42 0.40 0.40 0.40 0.40 0.40 0.40 0.40 0.42 0.42 0.42 0.42 0.42 0.42 0.42 0.42 0.42 0.40 0.40 0.40 0.40 0.40 0.40 0.40 0.40 0.40 0.40 0.40
0.46 0.46 0.44 0.44 0.42 0.42 0.42 0.40 0.40 0.40 0.40 0.40 0.40 0.40 0.40 0.40 0.40 0.40 0.42 0.42 0.42 0.42 0.42 0.42 0.44 0.44 0.44 0.44 0.44 0.44 0.44 0.44 0.44 0.44 0.46 0.46 0.46 0.46 0.44 0.44 0.44 0.42 0.42 0.42 0.42 0.42 0.42 0.42 0.42 0.42 0.42 0.42 0.42 0.40 0.42 0.42 0.42 0.42 0.42 0.42 0.42 0.42 0.42 0.40 0.40 0.40 0.40 0.40 0.42
0.46 0.44 0.44 0.42 0.42 0.40 0.40 0.38 0.38 0.38 0.38 0.40 0.40 0.40 0.40 0.40 0.40 0.40 0.40 0.42 0.42 0.42 0.42 0.42 0.42 0.44 0.44 0.44 0.44 0.44 0.44 0.44 0.44 0.44 0.44 0.46 0.46 0.46 0.46 0.46 0.46 0.44 0.44 0.44 0.44 0.42 0.42 0.42 0.42 0.42 0.42 0.42 0.40 0.40 0.40 0.42 0.42 0.42 0.42 0.42 0.42 0.42 0.42 0.42 0.42 0.42 0.42 0.42 0.42
0.46 0.44 0.44 0.42 0.40 0.40 0.38 0.38 0.38 0.38 0.38 0.40 0.40 0.40 0.40 0.40 0.40 0.40 0.40 0.42 0.42 0.42 0.42 0.42 0.42 0.44 0.44 0.44 0.44 0.44 0.44 0.44 0.44 0.44 0.44 0.44 0.46 0.46 0.46 0.46 0.46 0.46 0.46 0.44 0.44 0.44 0.44 0.44 0.44 0.44 0.42 0.42 0.42 0.40 0.40 0.42 0.42 0.42 0.42 0.42 0.42 0.42 0.42 0.42 0.42 0.42 0.42 0.42 0.44
0.44 0.44 0.42 0.42 0.40 0.40 0.40 0.38 0.38 0.38 0.40 0.40 0.40 0.40 0.40 0.40 0.40 0.40 0.40 0.40 0.40 0.40 0.42 0.42 0.42 0.44 0.44 0.44 0.44 0.44 0.44 0.44 0.44 0.44 0.44 0.44 0.44 0.46 0.46 0.46 0.46 0.46 0.46 0.46 0.46 0.46 0.46 0.46 0.46 0.44 0.44 0.42 0.42 0.42 0.42 0.42 0.42 0.42 0.42 0.44 0.44 0.44 0.44 0.44 0.44 0.44 0.44 0.44 0.44
0.44 0.44 0.42 0.40 0.40 0.40 0.40 0.40 0.40 0.40 0.40 0.40 0.40 0.40 0.40 0.40 0.40 0.40 0.40 0.40 0.40 0.40 0.42 0.42 0.42 0.42 0.42 0.42 0.42 0.44 0.44 0.44 0.44 0.44 0.44 0.44 0.44 0.44 0.46 0.46 0.46 0.46 0.46 0.46 0.46 0.46 0.48 0.48 0.46 0.46 0.46 0.44 0.44 0.44 0.44 0.44 0.44 0.44 0.44 0.44 0.44 0.44 0.44 0.44 0.44 0.46 0.44 0.44 0.46
0.44 0.42 0.42 0.40 0.40 0.40 0.40 0.40 0.40 0.40 0.40 0.40 0.40 0.38 0.38 0.40 0.40 0.40 0.40 0.40 0.40 0.40 0.42 0.42 0.42 0.42 0.42 0.42 0.42 0.42 0.42 0.44 0.44 0.44 0.44 0.44 0.44 0.44 0.44 0.46 0.46 0.46 0.46 0.46 0.48 0.48 0.48 0.48 0.48 0.46 0.46 0.46 0.46 0.46 0.46 0.46 0.46 0.46 0.46 0.44 0.46 0.46 0.46 0.46 0.46 0.46 0.46 0.46 0.46
0.42 0.42 0.42 0.40 0.40 0.40 0.40 0.40 0.40 0.40 0.40 0.40 0.40 0.38 0.38 0.40 0.40 0.40 0.40 0.40 0.40 0.40 0.40 0.42 0.40 0.40 0.40 0.40 0.40 0.40 0.40 0.42 0.42 0.42 0.44 0.44 0.44 0.44 0.44 0.46 0.46 0.46 0.46 0.46 0.48 0.48 0.48 0.48 0.48 0.46 0.46 0.46 0.46 0.46 0.46 0.46 0.46 0.46 0.46 0.46 0.46 0.46 0.46 0.46 0.46 0.46 0.46 0.46 0.46
0.42 0.42 0.40 0.40 0.40 0.40 0.40 0.40 0.40 0.40 0.40 0.40 0.40 0.40 0.40 0.40 0.40 0.40 0.40 0.40 0.40 0.42 0.42 0.42 0.42 0.40 0.40 0.40 0.40 0.40 0.40 0.40 0.40 0.42 0.42 0.42 0.44 0.44 0.46 0.46 0.46 0.46 0.46 0.46 0.48 0.48 0.48 0.48 0.46 0.46 0.46 0.46 0.46 0.46 0.46 0.46 0.46 0.46 0.46 0.46 0.48 0.48 0.48 0.48 0.48 0.48 0.48 0.50 0.48
0.40 0.40 0.40 0.40 0.40 0.42 0.42 0.42 0.42 0.40 0.40 0.40 0.40 0.40 0.40 0.40 0.40 0.40 0.42 0.42 0.42 0.42 0.40 0.40 0.42 0.40 0.40 0.40 0.40 0.40 0.40 0.40 0.40 0.40 0.40 0.42 0.42 0.42 0.44 0.46 0.46 0.46 0.46 0.46 0.48 0.48 0.48 0.46 0.46 0.46 0.46 0.46 0.46 0.46 0.46 0.46 0.46 0.46 0.46 0.48 0.48 0.48 0.48 0.50 0.50 0.50 0.50 0.50 0.50
0.40 0.40 0.40 0.42 0.42 0.42 0.42 0.42 0.42 0.40 0.40 0.40 0.40 0.40 0.40 0.40 0.40 0.42 0.42 0.42 0.40 0.40 0.40 0.40 0.42 0.40 0.40 0.40 0.40 0.40 0.40 0.40 0.40 0.40 0.40 0.40 0.40 0.40 0.42 0.44 0.44 0.46 0.46 0.46 0.48 0.48 0.48 0.46 0.46 0.46 0.46 0.46 0.46 0.46 0.46 0.46 0.46 0.46 0.46 0.46 0.48 0.48 0.48 0.50 0.50 0.50 0.50 0.50 0.50
0.40 0.40 0.42 0.42 0.42 0.42 0.42 0.42 0.42 0.42 0.40 0.40 0.40 0.40 0.40 0.40 0.40 0.42 0.42 0.40 0.40 0.40 0.40 0.42 0.42 0.42 0.40 0.40 0.40 0.40 0.40 0.40 0.40 0.40 0.40 0.40 0.40 0.40 0.40 0.42 0.42 0.44 0.44 0.44 0.46 0.46 0.46 0.46 0.46 0.46 0.46 0.46 0.46 0.46 0.46 0.46 0.46 0.46 0.46 0.46 0.46 0.48 0.48 0.48 0.50 0.50 0.50 0.50 0.50
0.40 0.42 0.42 0.42 0.42 0.42 0.42 0.42 0.42 0.42 0.40 0.40 0.40 0.40 0.40 0.40 0.42 0.42 0.40 0.40 0.40 0.40 0.40 0.40 0.42 0.42 0.42 0.40 0.40 0.40 0.40 0.40 0.40 0.40 0.40 0.40 0.40 0.40 0.40 0.40 0.42 0.42 0.42 0.42 0.44 0.44 0.46 0.46 0.46 0.46 0.46 0.46 0.46 0.46 0.48 0.48 0.46 0.46 0.46 0.46 0.46 0.46 0.46 0.46 0.48 0.48 0.48 0.48 0.48
0.42 0.42 0.42 0.42 0.42 0.42 0.42 0.42 0.42 0.42 0.40 0.40 0.40 0.40 0.40 0.40 0.40 0.40 0.40 0.40 0.40 0.40 0.40 0.40 0.42 0.42 0.42 0.42 0.40 0.40 0.40 0.40 0.40 0.38 0.38 0.38 0.38 0.38 0.38 0.38 0.40 0.40 0.40 0.40 0.42 0.42 0.44 0.44 0.44 0.44 0.46 0.46 0.46 0.46 0.46 0.46 0.46 0.46 0.46 0.46 0.46 0.46 0.46 0.46 0.46 0.46 0.46 0.46 0.46
0.42 0.42 0.42 0.42 0.42 0.42 0.42 0.42 0.42 0.42 0.40 0.40 0.40 0.40 0.40 0.40 0.40 0.40 0.40 0.40 0.40 0.40 0.40 0.40 0.40 0.40 0.40 0.40 0.40 0.40 0.40 0.38 0.38 0.38 0.36 0.36 0.36 0.36 0.36 0.36 0.36 0.36 0.38 0.38 0.40 0.40 0.42 0.42 0.44 0.44 0.44 0.44 0.46 0.46 0.46 0.46 0.46 0.46 0.46 0.46 0.46 0.46 0.46 0.46 0.46 0.46 0.46 0.46 0.46
0.40 0.42 0.42 0.42 0.42 0.42 0.42 0.42 0.42 0.40 0.40 0.40 0.40 0.40 0.40 0.40 0.40 0.40 0.40 0.40 0.40 0.40 0.40 0.38 0.38 0.38 0.38 0.38 0.38 0.38 0.38 0.36 0.36 0.36 0.34 0.34 0.34 0.34 0.34 0.34 0.34 0.34 0.36 0.36 0.38 0.38 0.40 0.40 0.42 0.42 0.42 0.44 0.44 0.44 0.46 0.46 0.46 0.46 0.46 0.46 0.46 0.46 0.44 0.46 0.46 0.46 0.46 0.46 0.46
0.40 0.40 0.42 0.42 0.40 0.40 0.40 0.40 0.40 0.40 0.38 0.38 0.38 0.38 0.38 0.38 0.38 0.38 0.38 0.38 0.38 0.36 0.36 0.36 0.36 0.36 0.36 0.34 0.34 0.34 0.34 0.34 0.34 0.32 0.32 0.32 0.32 0.32 0.32 0.32 0.32 0.32 0.34 0.34 0.34 0.36 0.36 0.38 0.40 0.40 0.42 0.42 0.42 0.42 0.42 0.44 0.44 0.46 0.46 0.48 0.46 0.46 0.46 0.46 0.46 0.46 0.46 0.46 0.46
0.40 0.40 0.40 0.40 0.38 0.38 0.38 0.38 0.38 0.36 0.36 0.36 0.36 0.36 0.36 0.36 0.36 0.34 0.34 0.34 0.34 0.34 0.34 0.32 0.32 0.32 0.32 0.32 0.32 0.32 0.32 0.30 0.30 0.30 0.30 0.30 0.30 0.30 0.30 0.30 0.30 0.30 0.30 0.32 0.32 0.32 0.34 0.34 0.36 0.38 0.38 0.40 0.38 0.38 0.40 0.40 0.42 0.42 0.44 0.44 0.46 0.46 0.46 0.48 0.48 0.48 0.48 0.48 0.48
0.38 0.38 0.36 0.36 0.36 0.34 0.34 0.34 0.34 0.32 0.32 0.32 0.32 0.32 0.32 0.32 0.32 0.32 0.32 0.32 0.32 0.30 0.30 0.30 0.30 0.30 0.30 0.28 0.28 0.28 0.28 0.28 0.28 0.28 0.28 0.28 0.28 0.28 0.28 0.28 0.28 0.28 0.30 0.30 0.30 0.30 0.30 0.32 0.32 0.34 0.34 0.36 0.34 0.34 0.34 0.36 0.38 0.38 0.40 0.40 0.42 0.42 0.44 0.42 0.44 0.46 0.46 0.46 0.48
0.36 0.34 0.34 0.32 0.32 0.32 0.30 0.30 0.30 0.30 0.30 0.30 0.30 0.30 0.30 0.30 0.30 0.28 0.28 0.28 0.28 0.28 0.28 0.28 0.28 0.28 0.28 0.28 0.28 0.28 0.28 0.28 0.28 0.28 0.28 0.28 0.28 0.28 0.28 0.28 0.28 0.28 0.28 0.28 0.28 0.28 0.28 0.30 0.30 0.30 0.32 0.32 0.30 0.30 0.30 0.32 0.34 0.34 0.36 0.36 0.38 0.38 0.38 0.36 0.38 0.40 0.42 0.44 0.44
0.32 0.32 0.30 0.30 0.30 0.28 0.28 0.28 0.28 0.28 0.28 0.28 0.28 0.28 0.28 0.28 0.28 0.28 0.28 0.28 0.28 0.28 0.28 0.28 0.28 0.26 0.26 0.26 0.26 0.26 0.26 0.28 0.28 0.26 0.26 0.26 0.28 0.28 0.28 0.28 0.28 0.28 0.28 0.28 0.28 0.28 0.28 0.28 0.28 0.28 0.30 0.30 0.28 0.28 0.28 0.30 0.30 0.32 0.32 0.34 0.34 0.34 0.34 0.34 0.34 0.36 0.38 0.38 0.40
0.30 0.30 0.28 0.28 0.28 0.28 0.28 0.28 0.28 0.28 0.28 0.28 0.28 0.28 0.28 0.28 0.26 0.26 0.26 0.28 0.28 0.28 0.26 0.26 0.26 0.26 0.26 0.26 0.26 0.26 0.26 0.26 0.26 0.26 0.28 0.28 0.28 0.28 0.28 0.28 0.28 0.28 0.28 0.28 0.28 0.28 0.28 0.28 0.28 0.28 0.28 0.28 0.28 0.28 0.28 0.30 0.30 0.30 0.30 0.32 0.32 0.32 0.32 0.32 0.34 0.34 0.34 0.36 0.38
0.28 0.28 0.28 0.28 0.28 0.28 0.28 0.28 0.28 0.28 0.28 0.28 0.26 0.26 0.26 0.26 0.26 0.26 0.26 0.26 0.26 0.26 0.26 0.26 0.26 0.26 0.26 0.26 0.26 0.26 0.26 0.26 0.26 0.26 0.28 0.28 0.28 0.28 0.28 0.28 0.28 0.28 0.28 0.28 0.28 0.28 0.28 0.28 0.28 0.28 0.28 0.28 0.28 0.30 0.30 0.30 0.30 0.30 0.30 0.30 0.30 0.32 0.32 0.32 0.32 0.34 0.34 0.34 0.36
0.28 0.28 0.28 0.28 0.28 0.28 0.28 0.28 0.28 0.28 0.28 0.26 0.26 0.26 0.26 0.26 0.26 0.26 0.26 0.26 0.26 0.26 0.26 0.26 0.26 0.26 0.26 0.26 0.26 0.26 0.26 0.26 0.26 0.26 0.26 0.26 0.28 0.28 0.28 0.28 0.28 0.28 0.28 0.28 0.28 0.28 0.28 0.28 0.28 0.30 0.30 0.30 0.30 0.30 0.30 0.30 0.30 0.30 0.30 0.30 0.30 0.32 0.32 0.32 0.34 0.34 0.34 0.34 0.36
0.28 0.30 0.30 0.30 0.30 0.30 0.28 0.28 0.28 0.28 0.26 0.26 0.26 0.26 0.26 0.26 0.26 0.26 0.26 0.26 0.26 0.26 0.26 0.26 0.26 0.26 0.26 0.26 0.26 0.26 0.26 0.24 0.24 0.24 0.24 0.26 0.26 0.26 0.26 0.28 0.28 0.28 0.28 0.28 0.28 0.28 0.30 0.30 0.30 0.30 0.32 0.32 0.32 0.32 0.32 0.32 0.32 0.32 0.32 0.32 0.32 0.32 0.32 0.32 0.34 0.34 0.34 0.34 0.36
0.30 0.30 0.30 0.30 0.30 0.30 0.28 0.28 0.28 0.28 0.28 0.28 0.28 0.26 0.26 0.26 0.26 0.26 0.26 0.26 0.26 0.26 0.26 0.26 0.26 0.26 0.26 0.26 0.26 0.24 0.24 0.24 0.24 0.24 0.24 0.24 0.24 0.26 0.26 0.26 0.26 0.28 0.28 0.28 0.28 0.28 0.30 0.30 0.30 0.32 0.32 0.32 0.32 0.32 0.32 0.32 0.32 0.34 0.32 0.32 0.34 0.34 0.34 0.32 0.34 0.34 0.36 0.36 0.36
0.30 0.30 0.30 0.30 0.30 0.30 0.30 0.28 0.28 0.28 0.28 0.28 0.28 0.28 0.28 0.28 0.26 0.26 0.26 0.26 0.26 0.26 0.26 0.26 0.26 0.26 0.26 0.26 0.26 0.26 0.24 0.24 0.24 0.24 0.24 0.24 0.24 0.24 0.24 0.26 0.26 0.26 0.28 0.28 0.28 0.28 0.30 0.30 0.30 0.32 0.32 0.32 0.32 0.32 0.32 0.32 0.32 0.34 0.34 0.34 0.34 0.34 0.34 0.34 0.34 0.36 0.36 0.36 0.38
0.30 0.30 0.30 0.30 0.30 0.30 0.30 0.30 0.30 0.30 0.28 0.28 0.28 0.28 0.28 0.28 0.28 0.28 0.26 0.26 0.26 0.26 0.26 0.26 0.26 0.26 0.26 0.26 0.26 0.26 0.26 0.26 0.26 0.26 0.26 0.26 0.26 0.26 0.26 0.26 0.26 0.26 0.26 0.28 0.28 0.28 0.30 0.30 0.30 0.30 0.30 0.32 0.32 0.32 0.32 0.32 0.32 0.34 0.34 0.34 0.34 0.34 0.34 0.36 0.36 0.36 0.38 0.38 0.38
0.30 0.30 0.30 0.30 0.30 0.30 0.30 0.30 0.30 0.30 0.30 0.30 0.30 0.30 0.28 0.28 0.28 0.28 0.28 0.26 0.26 0.26 0.26 0.26 0.26 0.26 0.26 0.26 0.26 0.26 0.26 0.26 0.26 0.26 0.26 0.26 0.26 0.26 0.26 0.26 0.26 0.26 0.26 0.26 0.28 0.28 0.28 0.28 0.28 0.30 0.30 0.32 0.32 0.32 0.32 0.32 0.32 0.32 0.32 0.34 0.34 0.34 0.36 0.36 0.36 0.38 0.38 0.38 0.38
0.30 0.30 0.30 0.30 0.30 0.32 0.32 0.32 0.32 0.30 0.30 0.30 0.30 0.30 0.28 0.28 0.28 0.28 0.28 0.26 0.26 0.26 0.26 0.26 0.26 0.26 0.26 0.26 0.26 0.26 0.26 0.26 0.26 0.26 0.26 0.26 0.26 0.26 0.26 0.26 0.26 0.26 0.26 0.26 0.26 0.26 0.28 0.28 0.28 0.30 0.30 0.30 0.32 0.32 0.32 0.32 0.32 0.32 0.32 0.32 0.34 0.34 0.36 0.36 0.36 0.38 0.38 0.40 0.40
0.32 0.32 0.32 0.32 0.32 0.32 0.32 0.32 0.32 0.32 0.30 0.30 0.30 0.28 0.28 0.28 0.28 0.28 0.26 0.26 0.26 0.26 0.26 0.26 0.26 0.26 0.26 0.24 0.24 0.24 0.24 0.24 0.26 0.26 0.26 0.26 0.26 0.26 0.26 0.26 0.26 0.26 0.26 0.26 0.26 0.26 0.26 0.28 0.28 0.30 0.30 0.30 0.32 0.32 0.32 0.32 0.32 0.32 0.32 0.32 0.32 0.34 0.34 0.36 0.38 0.38 0.38 0.40 0.40
0.32 0.34 0.34 0.34 0.34 0.34 0.34 0.32 0.32 0.32 0.30 0.30 0.28 0.28 0.28 0.28 0.28 0.26 0.26 0.26 0.26 0.26 0.26 0.26 0.24 0.24 0.24 0.24 0.24 0.24 0.24 0.24 0.24 0.24 0.26 0.26 0.26 0.26 0.26 0.26 0.24 0.24 0.26 0.26 0.26 0.26 0.26 0.28 0.28 0.28 0.30 0.30 0.32 0.32 0.32 0.32 0.32 0.32 0.32 0.32 0.32 0.32 0.34 0.34 0.36 0.38 0.38 0.40 0.40
0.34 0.34 0.34 0.34 0.34 0.32 0.32 0.32 0.30 0.30 0.30 0.28 0.28 0.28 0.26 0.26 0.26 0.26 0.26 0.26 0.26 0.24 0.24 0.24 0.24 0.24 0.24 0.24 0.24 0.24 0.22 0.24 0.24 0.24 0.24 0.24 0.26 0.24 0.24 0.24 0.24 0.24 0.24 0.24 0.26 0.26 0.26 0.26 0.28 0.28 0.30 0.30 0.30 0.30 0.30 0.30 0.30 0.30 0.30 0.30 0.30 0.32 0.34 0.34 0.36 0.36 0.38 0.38 0.40
0.34 0.34 0.34 0.32 0.32 0.32 0.32 0.30 0.30 0.28 0.28 0.26 0.26 0.26 0.26 0.24 0.24 0.24 0.24 0.24 0.24 0.24 0.24 0.24 0.22 0.22 0.22 0.24 0.22 0.22 0.22 0.22 0.24 0.24 0.24 0.24 0.24 0.24 0.24 0.24 0.24 0.24 0.24 0.24 0.24 0.26 0.26 0.26 0.28 0.28 0.30 0.30 0.30 0.30 0.30 0.30 0.30 0.30 0.28 0.30 0.30 0.32 0.32 0.34 0.36 0.38 0.38 0.40 0.40
0.34 0.32 0.32 0.32 0.30 0.30 0.30 0.28 0.28 0.26 0.26 0.24 0.24 0.24 0.24 0.22 0.22 0.22 0.22 0.22 0.22 0.22 0.22 0.22 0.22 0.22 0.22 0.22 0.22 0.22 0.22 0.22 0.22 0.22 0.22 0.22 0.22 0.22 0.22 0.22 0.24 0.24 0.24 0.24 0.24 0.24 0.26 0.26 0.26 0.28 0.28 0.30 0.30 0.30 0.30 0.28 0.28 0.28 0.28 0.28 0.30 0.30 0.32 0.34 0.36 0.38 0.40 0.40 0.40
0.32 0.32 0.30 0.30 0.28 0.28 0.28 0.26 0.24 0.24 0.22 0.22 0.22 0.22 0.22 0.22 0.22 0.22 0.22 0.22 0.22 0.22 0.22 0.22 0.22 0.22 0.22 0.22 0.22 0.22 0.22 0.22 0.22 0.22 0.22 0.22 0.22 0.22 0.22 0.22 0.22 0.22 0.22 0.24 0.24 0.24 0.24 0.26 0.26 0.28 0.28 0.30 0.30 0.28 0.28 0.28 0.28 0.28 0.28 0.28 0.30 0.30 0.32 0.34 0.36 0.36 0.38 0.40 0.40
0.30 0.30 0.28 0.28 0.26 0.26 0.24 0.24 0.22 0.22 0.20 0.20 0.20 0.20 0.20 0.20 0.20 0.20 0.22 0.22 0.22 0.20 0.20 0.20 0.20 0.20 0.20 0.22 0.22 0.22 0.22 0.22 0.22 0.22 0.22 0.22 0.22 0.22 0.22 0.22 0.22 0.22 0.22 0.24 0.24 0.24 0.24 0.26 0.26 0.28 0.28 0.28 0.28 0.28 0.28 0.28 0.28 0.28 0.28 0.28 0.30 0.30 0.32 0.34 0.36 0.36 0.38 0.38 0.40
0.30 0.28 0.28 0.26 0.26 0.24 0.24 0.22 0.20 0.20 0.20 0.20 0.20 0.20 0.20 0.20 0.20 0.20 0.20 0.22 0.20 0.20 0.20 0.20 0.20 0.20 0.20 0.22 0.22 0.22 0.22 0.22 0.22 0.22 0.22 0.20 0.22 0.22 0.22 0.20 0.22 0.22 0.22 0.24 0.24 0.24 0.24 0.26 0.26 0.28 0.28 0.28 0.28 0.28 0.28 0.28 0.28 0.28 0.30 0.30 0.30 0.32 0.32 0.34 0.36 0.36 0.38 0.38 0.40
0.28 0.26 0.26 0.24 0.24 0.22 0.22 0.20 0.20 0.20 0.20 0.20 0.20 0.20 0.20 0.20 0.20 0.20 0.22 0.22 0.22 0.22 0.20 0.20 0.20 0.20 0.22 0.22 0.22 0.22 0.22 0.22 0.22 0.22 0.20 0.20 0.20 0.20 0.22 0.22 0.22 0.22 0.24 0.24 0.24 0.24 0.26 0.26 0.26 0.28 0.28 0.28 0.28 0.28 0.30 0.30 0.30 0.30 0.30 0.30 0.32 0.32 0.34 0.34 0.36 0.36 0.38 0.38 0.40
0.26 0.26 0.24 0.24 0.22 0.22 0.22 0.20 0.20 0.20 0.20 0.20 0.20 0.20 0.20 0.20 0.20 0.22 0.22 0.22 0.22 0.22 0.22 0.22 0.20 0.22 0.22 0.22 0.20 0.20 0.20 0.20 0.20 0.20 0.20 0.20 0.20 0.22 0.22 0.22 0.22 0.22 0.24 0.24 0.24 0.26 0.26 0.26 0.26 0.28 0.28 0.30 0.30 0.30 0.30 0.32 0.30 0.30 0.30 0.32 0.32 0.32 0.34 0.34 0.36 0.36 0.38 0.38 0.40
0.26 0.24 0.24 0.22 0.22 0.22 0.22 0.20 0.20 0.20 0.20 0.20 0.20 0.22 0.22 0.22 0.22 0.22 0.22 0.22 0.22 0.22 0.22 0.22 0.22 0.22 0.22 0.22 0.20 0.20 0.20 0.20 0.20 0.20 0.20 0.20 0.22 0.22 0.22 0.22 0.22 0.24 0.24 0.24 0.26 0.26 0.26 0.26 0.28 0.28 0.28 0.30 0.30 0.30 0.32 0.32 0.32 0.30 0.30 0.32 0.32 0.32 0.34 0.34 0.36 0.38 0.38 0.38 0.40
Wind_Speed
30 31 31 32 33 33 34 34 34 35 35 35 36 36 36 36 36 36 36 36 36 36 36 36 36 36 37 37 38 38 38 38 38 38 38 39 39 39 39 40 40 41 41 42 42 42 43 43 44 44 44 45 45 45 46 46 46 46 47 47 48 48 49 49 49 50 50 50 50
31 32 33 33 34 34 34 35 35 35 35 36 36 36 36 36 36 36 36 36 36 36 37 37 37 37 37 38 38 38 38 39 39 39 39 40 40 40 40 41 41 42 42 43 43 43 44 44 45 45 45 46 46 47 47 47 47 48 48 49 49 49 49 50 50 51 51 51 51
33 34 34 34 35 35 35 35 36 36 36 36 36 36 37 37 37 37 37 36 37 37 37 37 37 37 38 38 38 39 39 39 40 40 40 41 41 41 41 42 42 43 43 43 44 44 45 45 46 46 46 47 47 48 48 48 49 49 50 50 50 50 50 51 51 51 51 51 52
34 35 35 35 36 36 36 36 36 37 37 37 37 37 37 37 37 37 37 37 37 37 37 37 37 38 38 39 39 39 40 40 40 41 41 42 42 42 43 43 43 43 44 44 45 45 46 46 46 47 47 48 48 49 49 49 50 50 50 51 51 51 51 52 52 51 51 52 52
35 35 36 36 36 36 36 37 37 37 37 37 37 37 37 37 37 37 37 37 37 37 37 38 38 38 39 39 40 40 41 41 41 42 42 43 43 43 44 44 44 44 45 45 45 46 46 47 47 48 48 49 49 50 50 50 51 51 51 52 52 52 52 52 52 52 52 52 52
36 36 36 36 36 37 37 37 37 37 37 37 37 37 37 37 37 37 37 37 37 38 38 38 39 39 39 40 40 41 41 42 42 42 43 43 44 44 44 45 45 45 45 46 46 47 47 47 48 48 49 49 50 50 51 51 51 52 52 52 53 53 53 53 53 53 53 53 53
36 36 36 37 37 37 37 37 37 37 37 37 37 37 37 37 37 37 38 38 38 38 38 39 39 39 40 40 41 41 42 42 43 43 44 44 44 45 45 45 46 46 47 47 47 48 48 48 49 49 50 50 50 51 51 52 52 52 53 53 53 53 53 54 54 54 54 54 54
36 36 37 37 37 37 37 37 37 37 37 37 37 37 37 38 38 38 38 38 39 39 39 39 40 40 41 41 42 42 43 43 43 44 44 45 45 46 46 46 47 47 48 48 48 49 49 49 49 50 51 51 51 52 52 52 52 53 53 53 54 54 54 54 54 55 55 55 55
36 37 37 37 37 37 37 37 37 37 37 37 37 38 38 38 38 39 39 39 39 40 40 40 41 41 42 42 43 43 44 44 44 45 45 45 46 46 47 47 48 48 48 49 49 50 50 50 51 51 51 52 52 52 53 53 53 53 54 54 54 54 54 54 54 55 55 55 56
37 37 37 37 37 37 37 37 37 38 38 38 38 38 39 39 39 40 40 40 41 41 41 42 42 43 43 44 44 44 45 45 45 46 46 46 47 47 48 48 48 49 49 49 50 50 51 51 52 52 53 53 53 54 54 54 54 54 54 54 54 54 54 54 54 55 55 55 56
37 38 38 37 38 38 38 38 38 38 38 38 39 39 40 40 40 41 41 41 42 42 43 43 44 44 45 45 46 46 46 47 47 47 48 48 48 48 49 49 49 50 50 50 51 51 51 52 52 53 54 54 54 54 55 55 54 54 55 54 54 54 55 55 55 55 55 55 56
38 38 38 38 38 38 38 38 38 39 39 39 40 40 41 41 41 42 42 43 43 44 44 45 45 46 46 47 47 47 48 48 48 49 49 49 50 50 50 50 50 51 51 51 51 51 52 53 53 54 54 55 55 55 55 55 55 55 55 55 55 55 55 56 55 55 55 56 56
38 38 38 38 38 39 39 39 39 40 40 40 41 41 42 42 42 43 43 44 44 45 45 46 46 47 47 48 48 49 49 49 50 50 50 51 51 51 51 51 51 52 52 52 52 52 53 53 54 54 55 55 55 55 55 55 55 56 56 56 56 56 56 57 57 57 57 57 57
38 38 38 39 39 39 40 40 40 41 41 41 42 42 43 43 44 44 44 45 45 46 47 47 47 48 48 49 49 50 50 51 51 51 52 52 52 52 52 52 52 53 53 53 53 53 53 54 54 54 55 55 55 56 56 56 56 56 57 57 57 57 58 58 58 58 58 58 58
39 39 39 39 40 40 40 41 41 42 42 42 43 43 44 44 45 45 45 46 47 47 48 48 48 49 49 50 50 51 51 52 52 52 52 53 53 53 53 53 53 53 53 53 53 54 54 54 54 55 55 55 56 56 56 57 57 57 58 58 58 59 59 59 59 59 59 59 59
39 39 40 40 41 41 41 42 42 43 43 43 44 44 45 45 46 46 47 47 48 48 49 49 50 50 51 51 51 52 52 52 53 53 53 53 54 54 54 54 54 54 54 54 54 54 54 54 54 55 55 56 56 57 57 57 58 58 59 59 60 60 60 61 61 60 60 60 60
40 40 41 41 42 42 42 43 43 43 44 45 45 46 46 46 47 47 48 48 49 49 50 50 51 51 51 52 52 52 53 53 53 53 54 54 54 54 55 55 55 55 54 54 54 54 55 55 55 55 55 56 56 57 57 58 58 59 59 60 61 61 61 62 61 61 61 61 61
41 41 41 42 42 43 43 44 44 45 45 46 46 46 47 47 48 48 49 49 50 50 51 51 51 52 52 53 53 53 53 53 54 54 54 54 55 55 55 55 55 55 55 54 54 55 55 55 55 56 56 56 57 57 58 58 59 60 60 61 61 61 62 62 62 61 61 61 60
41 42 42 43 43 44 44 45 45 45 46 46 47 47 48 48 49 49 49 50 50 51 51 52 52 52 53 53 53 53 53 53 54 54 55 55 55 55 55 55 55 55 54 54 55 55 55 55 56 56 56 57 57 58 58 59 60 60 60 61 61 61 61 61 61 61 60 60 59
42 42 43 43 44 44 45 45 46 46 46 47 47 48 48 49 49 50 50 50 51 51 52 52 53 53 53 53 54 54 54 54 54 54 55 55 55 55 55 55 55 55 54 54 54 55 55 56 56 57 57 57 58 58 59 60 60 60 60 60 61 61 60 60 60 59 59 58 58
43 43 44 44 45 45 45 46 46 47 47 48 48 48 49 49 50 50 50 51 51 52 52 53 53 53 53 54 54 54 54 54 54 54 54 54 54 54 54 54 54 54 54 54 54 55 55 56 56 57 57 58 58 59 59 59 60 60 60 60 60 59 59 59 58 58 57 56 56
43 44 44 45 45 46 46 46 47 47 48 48 49 49 49 50 50 51 51 51 52 52 52 53 53 53 54 54 54 54 54 54 54 54 54 54 54 54 54 54 54 55 55 55 55 55 56 56 57 57 57 58 58 59 59 59 59 59 59 59 58 58 57 57 56 56 55 54 54
44 45 45 45 46 46 47 47 48 48 48 49 49 50 50 50 51 51 52 52 52 52 53 53 53 54 54 54 54 55 55 55 55 55 54 54 54 55 55 55 55 55 55 55 55 55 56 56 57 57 57 58 58 58 58 58 58 58 57 57 57 56 55 54 54 53 53 52 52
45 45 46 46 46 47 47 48 48 49 49 50 50 50 51 51 51 52 52 52 53 53 53 54 54 54 55 55 55 55 55 55 55 55 55 55 55 55 55 55 55 56 56 56 56 56 56 56 57 57 57 57 57 57 57 57 56 56 55 55 55 54 53 52 52 51 51 50 50
45 46 46 47 47 48 48 49 49 49 50 50 51 51 52 52 52 53 53 53 54 54 54 54 55 55 55 55 55 55 55 55 55 55 55 55 55 56 56 56 56 56 56 56 57 57 57 57 57 57 57 56 56 56 56 55 55 54 53 53 52 52 51 51 50 50 49 49 48
46 46 47 47 48 48 49 49 50 50 51 51 52 52 52 53 53 53 54 54 54 55 55 55 55 55 55 55 55 55 55 55 55 55 56 56 56 56 56 56 56 56 57 57 58 58 58 58 58 57 56 55 55 55 54 54 53 52 51 51 50 50 50 49 49 49 48 47 47
47 47 48 48 49 49 50 50 51 51 52 52 53 53 53 54 54 54 55 55 55 55 55 55 55 55 55 55 55 55 55 55 55 56 56 56 57 57 57 57 57 57 57 58 58 58 58 58 57 57 55 54 54 53 53 52 51 51 50 49 49 48 48 48 47 47 46 46 45
47 48 48 49 50 50 51 51 52 52 53 53 54 54 54 55 55 55 55 56 56 56 55 55 55 55 54 55 55 55 56 56 56 56 57 57 57 57 58 58 58 58 58 58 58 58 58 57 56 56 55 53 52 51 51 50 49 49 48 48 47 47 47 46 46 45 45 44 44
48 49 49 50 50 51 52 52 53 53 54 54 55 55 55 56 56 56 56 56 56 56 55 55 55 55 55 55 56 56 57 57 57 57 57 57 58 58 58 58 58 58 58 58 58 58 57 56 55 54 53 52 50 49 48 48 47 47 47 46 46 46 45 45 44 44 43 42 42
49 49 50 51 51 52 53 53 54 54 55 55 55 56 56 56 56 56 56 56 56 56 56 56 56 56 56 57 57 57 57 58 58 58 58 58 58 59 59 59 59 58 58 58 57 57 56 55 54 53 51 50 49 47 47 46 46 46 45 45 45 44 44 44 43 43 42 42 41
50 50 51 52 53 53 54 54 55 55 55 56 56 56 57 57 57 57 57 57 57 57 57 57 57 57 58 58 58 58 58 58 59 58 59 59 59 59 59 59 59 58 58 57 56 55 54 53 52 51 50 48 47 46 45 45 45 45 45 44 44 44 43 42 42 42 41 41 41
51 51 52 53 54 54 55 55 56 56 56 57 57 57 57 57 57 57 57 57 58 58 58 58 58 58 59 59 59 59 59 59 59 59 59 59 59 60 60 59 58 57 57 56 55 53 52 51 50 49 48 47 46 45 45 45 45 44 44 44 43 43 42 42 41 41 41 41 40
52 53 53 54 55 55 56 56 56 57 57 57 57 58 58 58 58 58 58 58 58 58 58 59 59 59 59 59 59 60 60 60 60 60 60 60 60 60 59 58 57 56 55 54 53 52 50 49 48 47 47 46 45 45 45 44 44 43 43 43 42 42 42 41 41 41 40 40 40
53 54 55 55 56 56 57 57 57 58 58 58 58 58 58 58 58 58 59 58 58 58 59 59 59 60 60 60 60 60 60 60 60 60 60 60 60 59 58 57 55 54 53 52 51 50 49 48 47 46 46 45 45 44 44 43 43 42 42 42 41 41 40 40 40 40 39 39 39
54 55 56 56 57 57 58 58 58 58 58 58 59 59 59 58 59 59 59 59 59 59 59 60 60 60 60 60 60 60 61 61 61 61 60 59 59 58 57 56 54 53 51 50 49 48 47 46 45 45 45 44 43 43 43 42 42 41 41 41 40 40 40 39 39 39 39 38 38
55 56 56 57 58 58 58 58 59 59 59 59 59 59 59 59 59 59 59 59 60 60 60 60 60 60 61 61 61 61 61 61 61 60 60 59 57 56 55 54 53 51 49 48 47 46 45 45 44 44 44 43 42 42 41 41 40 40 40 40 39 39 39 39 39 38 38 38 38
56 56 57 58 58 59 59 59 59 59 59 59 59 59 59 59 59 60 59 59 60 60 60 60 61 61 61 61 61 61 61 60 60 59 59 57 56 54 53 52 51 49 47 46 45 45 44 44 43 43 42 42 41 41 40 40 39 39 39 39 38 38 38 38 38 37 37 37 36
57 57 58 58 59 59 59 59 59 59 59 60 59 59 59 59 60 60 60 60 60 60 61 61 61 61 61 62 62 62 61 60 59 57 56 55 54 52 51 50 48 47 45 44 44 43 43 42 42 42 41 41 40 40 39 39 38 38 38 37 37 37 37 37 36 36 36 35 35
58 58 58 59 59 59 59 59 59 59 59 60 60 60 60 60 60 60 60 60 60 60 61 61 62 62 62 62 61 61 60 59 57 55 54 53 51 50 48 47 46 45 44 43 42 42 41 41 41 41 40 40 39 39 38 38 37 37 37 37 37 37 36 36 35 35 35 34 34
58 58 59 59 59 59 59 59 59 59 59 59 60 60 60 60 60 60 60 60 60 60 61 61 62 62 62 61 60 59 59 57 55 53 51 50 49 48 47 45 44 43 42 41 41 41 40 40 40 40 39 39 38 38 37 37 37 37 37 36 36 36 36 35 34 34 33 33 33
59 59 59 59 59 59 59 59 59 59 59 59 60 60 60 60 60 60 60 60 60 61 61 61 62 62 61 60 58 57 56 55 53 51 49 48 47 45 44 43 42 42 41 40 40 40 39 39 39 39 39 38 38 37 37 37 36 36 36 36 36 35 35 34 34 33 32 32 32
Wind_Direction
307 307 307 307 307 307 307 307 307 307 307 306 306 306 306 306 305 305 305 304 303 303 302 302 301 300 300 299 299 298 297 296 296 295 294 293 293 292 292 292 291 291 290 290 289 289 288 288 287 287 287 286 286 286 285 285 285 284 284 284 284 283 283 283 283 283 282 282 282
307 307 307 307 307 307 308 308 308 308 307 307 307 307 306 306 306 305 305 304 303 303 302 301 300 300 299 298 298 297 296 296 295 294 293 292 292 291 291 291 290 290 290 289 289 289 288 288 287 287 287 286 286 286 285 285 285 284 284 283 283 283 283 283 283 283 282 282 282
307 307 307 308 308 308 308 308 308 308 308 308 308 307 307 306 306 305 305 304 304 303 302 301 300 299 298 298 297 296 295 295 294 293 293 292 291 291 290 290 289 289 289 288 288 288 288 287 287 287 286 286 286 286 285 285 285 284 284 283 283 283 283 283 283 283 283 283 282
307 307 308 308 308 308 308 308 308 308 308 308 308 308 307 307 306 306 305 305 304 303 302 301 300 300 299 298 297 296 295 295 294 293 292 292 291 290 290 289 289 288 288 288 287 287 287 287 287 286 286 286 286 286 286 285 285 284 284 284 284 284 283 284 283 283 283 283 283
307 308 308 308 308 308 308 308 308 308 308 308 308 307 307 307 306 306 305 305 304 303 303 302 301 300 299 299 298 297 296 295 294 294 293 292 291 291 290 289 289 288 288 288 287 287 287 286 286 286 286 286 286 286 286 285 285 285 285 285 284 284 284 284 284 284 284 284 283
307 307 308 308 308 308 308 308 308 308 308 308 307 307 307 306 306 305 305 304 304 304 303 302 302 301 301 300 299 298 297 296 296 295 294 293 292 292 291 290 289 289 288 288 287 287 287 286 286 286 286 286 286 286 286 286 285 285 285 285 285 285 284 284 284 284 284 284 284
307 307 307 308 308 308 308 308 308 308 307 307 307 306 306 306 305 305 305 304 304 304 303 303 303 302 302 301 301 300 299 298 297 296 295 294 294 293 292 291 290 290 289 288 288 287 287 287 287 287 287 287 287 287 286 286 286 286 285 285 285 285 285 285 285 285 285 284 284
307 307 308 308 307 307 307 307 307 307 307 307 306 306 306 305 305 305 305 304 304 304 304 303 303 303 302 302 302 301 300 300 299 298 297 296 295 294 293 292 291 291 290 289 289 288 288 287 287 287 287 287 287 287 287 286 286 286 286 285 286 286 285 285 285 285 285 284 284
307 307 307 307 307 307 307 307 307 306 306 306 306 306 305 305 305 305 304 304 304 304 304 303 303 303 303 302 302 302 301 301 300 299 298 297 296 296 295 294 293 292 291 290 290 289 288 288 288 288 288 288 288 287 287 287 286 286 286 286 286 286 286 285 285 285 285 285 284
307 307 307 307 307 307 307 306 306 306 306 305 305 305 305 305 305 305 304 304 304 304 304 304 303 303 303 303 302 302 301 301 300 300 299 299 298 297 296 295 294 293 292 292 291 290 289 289 288 288 288 288 287 287 287 287 286 286 286 286 286 286 285 285 285 285 285 285 285
307 307 307 307 306 306 306 306 306 306 305 305 305 305 305 305 305 305 305 304 304 304 304 304 304 303 303 303 302 302 302 301 301 300 300 299 298 298 297 296 295 294 293 292 292 291 290 289 289 288 288 288 288 287 287 287 286 286 286 286 286 286 285 285 285 285 285 285 285
306 306 306 306 306 306 306 306 306 306 305 305 305 305 305 305 305 305 305 304 304 304 304 304 304 303 303 303 303 302 302 301 301 300 300 299 299 298 297 296 295 295 294 293 292 291 291 290 289 289 288 288 288 288 287 287 287 286 286 286 286 286 286 286 286 286 286 286 286
306 306 306 306 306 306 306 306 306 306 306 305 305 305 305 305 305 305 305 304 304 304 304 304 304 303 303 303 303 302 302 301 301 300 300 299 299 298 297 296 296 295 294 293 292 292 291 290 290 289 289 288 288 288 288 287 287 286 286 286 286 286 286 286 286 286 286 286 286
306 306 306 306 306 306 306 306 306 306 306 306 305 305 305 305 305 305 305 304 304 304 304 304 304 303 303 303 302 302 302 301 301 300 299 299 298 298 297 296 296 295 294 294 293 292 291 291 290 290 289 289 288 288 288 287 287 287 287 286 286 286 286 287 287 287 287 287 287
307 306 306 306 306 306 306 306 306 306 306 306 306 306 305 305 305 305 305 304 304 304 304 304 303 303 303 302 302 302 301 301 300 299 299 298 298 297 297 296 296 295 294 294 293 292 292 291 291 290 290 289 289 289 288 288 288 287 287 287 287 287 287 287 287 287 287 287 287
307 307 307 307 307 307 307 307 306 306 306 306 306 306 306 306 305 305 305 305 304 304 304 303 303 303 303 302 302 301 301 300 300 299 299 298 298 297 297 296 296 295 295 294 293 293 292 292 291 291 290 290 290 289 289 289 289 288 288 288 288 288 288 288 288 288 287 287 287
307 307 307 307 307 307 307 307 307 307 307 307 306 306 306 306 306 305 305 305 305 304 304 303 303 303 302 302 301 301 300 300 299 299 298 298 298 297 297 296 296 295 295 294 294 293 293 293 292 292 291 291 291 290 290 290 290 290 289 289 289 288 288 288 288 288 287 287 286
308 308 308 308 307 307 307 307 307 307 307 307 307 307 306 306 306 306 305 305 305 304 304 303 303 302 302 302 301 301 300 300 299 299 298 298 298 297 297 296 296 296 295 295 295 294 294 293 293 293 292 292 292 292 291 291 291 291 290 290 290 289 289 288 288 287 287 287 286
308 308 308 308 308 308 308 307 307 307 307 307 307 307 307 306 306 306 305 305 305 304 304 303 303 303 302 302 301 301 301 300 300 299 299 298 298 298 297 297 297 296 296 296 295 295 295 294 294 294 294 293 293 293 292 292 292 291 291 291 290 290 289 289 288 288 287 286 286
308 308 308 308 308 308 308 308 307 307 307 307 307 307 306 306 306 306 305 305 305 304 304 303 303 303 302 302 302 301 301 301 300 300 299 299 299 298 298 298 297 297 297 296 296 296 296 295 295 295 295 294 294 294 293 293 292 292 292 291 291 290 290 289 288 288 287 286 285
308 308 308 308 308 308 308 308 308 307 307 307 307 307 306 306 306 306 305 305 305 304 304 304 303 303 303 303 302 302 302 301 301 300 300 300 299 299 299 298 298 298 298 297 297 297 296 296 296 296 296 295 295 294 294 294 293 292 292 291 291 290 289 289 288 287 286 286 285
308 308 308 308 308 308 308 308 308 307 307 307 307 306 306 306 306 306 305 305 305 305 304 304 304 303 303 303 303 302 302 302 301 301 300 300 300 299 299 299 299 298 298 298 298 298 297 297 297 297 297 296 296 295 295 294 293 293 292 291 291 290 289 288 288 287 286 285 284
308 308 308 308 308 308 308 308 307 307 307 307 307 306 306 306 306 306 305 305 305 305 305 304 304 304 303 303 303 302 302 302 301 301 301 300 300 300 300 299 299 299 299 299 299 299 298 298 298 297 297 297 296 296 295 294 294 293 292 291 291 290 289 288 287 287 286 285 284
308 308 308 308 308 308 308 308 307 307 307 307 307 307 306 306 306 306 306 306 305 305 305 305 304 304 304 303 303 303 302 302 302 301 301 301 300 300 300 300 300 299 299 299 299 299 299 299 299 298 298 297 297 296 295 294 294 293 292 292 291 290 289 289 288 287 286 285 284
308 308 308 308 308 308 308 308 307 307 307 307 307 307 307 306 306 306 306 306 305 305 305 305 304 304 304 303 303 303 303 302 302 302 301 301 301 301 300 300 300 300 300 300 300 299 299 299 299 299 298 297 297 296 295 294 294 293 292 292 291 290 290 289 288 287 286 285 284
308 308 308 308 308 308 308 308 308 307 307 307 307 307 307 307 306 306 306 306 305 305 305 305 304 304 304 304 303 303 303 303 303 302 302 302 301 301 301 301 300 300 300 300 300 299 299 299 299 298 298 297 297 296 295 294 294 293 292 291 291 290 289 289 288 287 286 285 284
308 308 308 308 308 308 308 308 308 308 308 308 307 307 307 307 307 306 306 305 305 305 305 304 304 304 304 304 304 304 304 303 303 303 302 302 302 302 301 301 301 301 300 300 299 299 299 299 298 298 297 297 296 295 294 294 293 293 292 291 291 290 289 289 288 287 287 286 285
308 308 308 308 308 308 308 308 308 308 308 307 307 307 307 307 306 306 306 305 305 305 305 304 304 304 304 304 304 304 304 303 303 303 303 303 302 302 302 301 301 301 300 300 299 299 299 298 298 297 297 296 295 295 294 293 293 292 292 291 291 290 289 289 288 288 287 286 285
308 308 308 308 308 308 308 308 308 308 307 307 307 307 307 306 306 306 306 305 305 305 305 305 305 304 304 304 304 304 304 303 303 303 303 303 303 302 302 302 301 301 301 300 299 299 298 298 297 297 296 296 295 295 294 293 293 292 292 291 291 290 289 289 288 288 287 286 286
308 308 308 308 308 308 308 308 307 307 307 307 307 306 306 306 306 306 306 305 305 305 305 305 305 304 304 304 304 304 304 304 303 303 303 303 303 302 302 302 301 301 301 300 299 298 298 297 296 296 296 295 295 294 294 294 293 293 292 291 291 290 289 288 288 287 286 286 285
308 308 308 308 308 308 308 307 307 307 307 307 306 306 306 306 306 306 306 305 305 305 305 305 305 304 304 304 304 304 304 304 303 303 303 303 302 302 302 301 301 301 300 300 299 298 297 296 296 295 295 295 294 294 294 294 293 292 292 291 290 290 289 288 287 287 286 285 285
308 308 308 308 308 307 307 307 307 307 307 307 306 306 306 306 306 306 306 305 305 305 305 305 305 305 304 304 304 304 304 304 303 303 303 302 302 302 301 301 301 300 300 299 299 298 297 296 295 295 295 295 294 294 294 294 293 292 292 291 290 289 288 288 287 286 286 285 284
309 308 308 308 308 308 307 307 307 307 307 307 307 306 306 306 306 306 306 305 305 305 305 305 305 305 305 305 304 304 304 304 303 303 302 302 302 301 301 300 300 300 299 299 298 297 296 296 295 295 295 295 295 294 294 294 293 292 292 291 290 289 288 288 287 286 286 285 285
309 309 308 308 308 308 308 308 308 308 307 307 307 307 306 306 306 306 306 305 305 305 305 305 305 305 304 304 304 304 304 304 303 303 302 302 301 301 300 300 300 299 299 298 298 297 296 295 295 295 295 295 295 295 294 294 293 292 291 291 290 289 289 288 287 286 286 285 285
309 309 309 309 308 308 308 308 308 308 308 307 307 307 307 306 306 306 306 306 305 305 305 305 305 305 304 304 304 304 304 303 303 302 302 301 301 300 300 299 299 299 298 298 297 296 296 296 295 295 295 295 295 295 294 294 293 292 291 291 290 290 289 288 288 287 286 285 285
310 309 309 309 309 309 309 309 309 308 308 308 308 307 307 307 307 306 306 306 306 305 305 305 305 305 305 304 304 304 303 303 302 302 301 301 300 300 300 299 299 299 298 298 297 297 296 296 296 296 296 296 295 295 295 294 293 293 292 291 291 290 290 289 288 287 286 286 285
310 310 310 310 310 309 309 309 309 309 308 308 308 308 308 307 307 307 306 306 306 305 305 305 305 305 305 304 304 304 303 303 302 302 301 301 300 300 299 299 299 298 298 298 297 297 297 297 297 297 296 296 296 295 295 294 294 293 293 292 291 291 290 290 289 288 287 286 285
311 310 310 310 310 310 310 310 309 309 309 309 308 308 308 308 307 307 307 306 306 306 305 305 305 305 305 304 304 304 303 303 302 302 301 301 300 300 299 299 299 298 298 298 298 298 298 297 297 297 297 297 296 296 295 295 294 293 293 293 292 292 291 291 290 289 288 287 286
311 311 311 311 310 310 310 310 309 309 309 309 309 308 308 308 308 307 307 307 306 306 305 305 305 305 305 305 304 304 303 303 302 302 301 301 300 300 299 299 299 299 299 299 299 298 298 298 298 298 298 297 297 296 296 295 294 294 293 293 293 292 292 291 290 289 289 287 286
311 311 311 311 311 310 310 310 310 309 309 309 309 309 308 308 308 308 307 307 307 306 306 306 305 305 305 305 304 303 303 303 302 302 301 301 300 300 299 299 299 299 299 299 299 299 299 299 299 299 298 298 297 297 296 295 295 294 294 293 293 293 292 291 290 290 289 288 286
312 311 311 311 311 310 310 310 310 310 309 309 309 309 309 309 308 308 308 308 307 307 306 306 306 306 305 305 304 304 303 303 303 302 302 301 301 300 299 299 299 299 299 299 299 300 300 300 299 299 298 298 297 297 296 296 295 295 294 294 293 293 292 291 290 289 288 287 287